STARLINK-2739, 48639

Orbit data source: Space-Track

STARLINK-2739, 48639 is a payload satellite owned by SpaceX/Seattle (US) in LEO that was launched on Wed, 26 May 2021 UTC via an FALCON 9 launch vehicle from the Air Force Eastern Test Range (AFETR). Payload-class satellites include a variety of spacecraft equipped with specific instruments for various scientific and technological missions. These include communications satellites like Starlink; space stations such as the ISS; scientific satellites like the Hubble; Earth observation satellites from companies like Planet Labs, Umbra, and HawkEye 360; GPS; miniature CubeSats for education and research; and military/defense satellites.

Loading next visibility...
Identifier
48639, 2021-044B
Orbit
LEO
Country
Flag of USUS
Related business
Manufacturer
SpaceX/Seattle
Mission
Operational Commercial Communications
Bus & Motor
STARLINK, Unknown motor
Mass
260 kg wet, ~248 kg dry
Launch date (UTC)
2021-05-26 (5 years ago)
Launch vehicle
FALCON 9
Launch site
Air Force Eastern Test Range (AFETR)
Object type
Payload
Rocket body
Debris
Shape & HBR
Box + 1 Pan, 10.1 m
Radar Cross Section
13.562 m², Large (>1 m²)

Expand to show TLE details & history
Last TLE update: 22 hours ago

TLE from 22 hours ago
0 STARLINK-2739
1 48639U 21044B   25348.78737066 -.00011394  00000-0 -74744-3 0  9996
2 48639  53.0535 137.7699 0001231  87.4552 272.6578 15.06390496250987
Epoch: 2025-12-14T18:53Z
TLE epoch observation values (Epoch: 2025-12-14T18:53:48.825Z)
Latitude
0.00001°
Longitude
130.6212°
Altitude
548.08 km
Speed
7.589 km/s
True Right ascension
09h 11m 04s
True Declination
0° 00' 00"
Sunlit
Object was in full shadow at epoch
Visualization orbit readout
Latitude
Unknown
Longitude
Unknown
Altitude
Unknown
Speed
Unknown
Apparent Right ascension
Unknown
Apparent Declination
Unknown
Sunlit
N/A
Visualization observer readout
Local Sidereal Time
15:07:32
Azimuth
Unknown
Elevation
Unknown
Doppler factor
Unknown
Orbital elements
Apogee altitude
548.364 km
Perigee altitude
546.659 km
Semi-major axis
6,925.649 km
Eccentricity
0.00012
Inclination
53.0535°
RAAN
137.7699°
Arg. of periapsis
87.4552°
True anomaly
272.64371°
Mean anomaly
272.6578°
Eccentric anomaly
272.65075°
Mean motion
3.76576 °/min
Orbital period
95.6 mins
BSTAR
-0.00074744
Loading maneuver chart data...
Computing Atmospheric mass density...
Loading historical data...
Loading historical data...
Loading historical data...
Loading historical data...
Loading historical data...
Loading historical data...
Loading historical data...

Documentation

Showing up to 5 results
|